Location: Fort Worth, Tx
(32.7431°N, 97.3695°W)
Time: 09:13:05
(UTC-05:00)

A-11 Canister half - Visible Passes

Search period start: 28 November 2023 00:00
Search period end: 08 December 2023 00:00
Orbit: 1514 x 1685 km, 47.2° (Epoch: 27 November)

Date Brightness Start Highest point End Pass type
(mag) Time Alt. Az. Time Alt. Az. Time Alt. Az.
28 Nov 10.8 03:38:57 21° NE 03:38:57 21° NE 03:41:34 10° NE visible
28 Nov 9.7 05:37:09 37° NNW 05:38:05 37° N 05:47:17 10° NE visible
28 Nov 9.9 07:36:14 10° NW 07:45:34 40° NNE 07:55:00 10° E visible
29 Nov 11.1 03:17:19 15° NE 03:17:19 15° NE 03:18:33 10° NE visible
29 Nov 9.8 05:15:31 38° N 05:15:31 38° N 05:24:12 10° NE visible
29 Nov 9.9 07:13:43 12° NW 07:22:27 39° NNE 07:31:49 10° E visible
30 Nov 10.0 04:53:52 36° N 04:53:52 36° N 05:01:06 10° NE visible
30 Nov 9.9 06:52:04 17° NW 06:59:20 38° NNE 07:08:38 10° E visible
01 Dec 10.2 04:32:13 31° NNE 04:32:13 31° NNE 04:38:01 10° NE visible
01 Dec 9.9 06:30:25 22° NW 06:36:12 38° NNE 06:45:28 10° ENE visible
02 Dec 10.5 04:10:34 26° NE 04:10:34 26° NE 04:14:57 10° NE visible
02 Dec 9.9 06:08:45 27° NNW 06:13:05 37° N 06:22:16 10° ENE visible
03 Dec 10.8 03:48:54 21° NE 03:48:54 21° NE 03:51:53 10° NE visible
03 Dec 9.9 05:47:06 31° NNW 05:49:57 36° N 05:59:06 10° ENE visible
03 Dec 9.5 07:46:37 10° NW 07:56:40 66° NNE 08:06:47 10° ESE visible
04 Dec 11.0 03:27:14 15° NE 03:27:14 15° NE 03:28:49 10° NE visible
04 Dec 9.9 05:25:27 35° N 05:26:49 36° N 05:35:55 10° ENE visible
04 Dec 9.5 07:23:38 10° NW 07:33:37 63° NNE 07:43:41 10° ESE visible
05 Dec 11.3 03:05:36 10° NE 03:05:36 10° NE 03:05:45 10° NE visible
05 Dec 9.9 05:03:48 35° N 05:03:48 35° N 05:12:44 10° ENE visible
05 Dec 9.5 07:02:00 15° NW 07:10:34 60° NNE 07:20:36 10° ESE visible
06 Dec 10.1 04:42:11 33° NNE 04:42:11 33° NNE 04:49:34 10° ENE visible
06 Dec 9.5 06:40:22 21° NW 06:47:30 58° NNE 06:57:29 10° ESE visible
07 Dec 10.3 04:20:34 29° NE 04:20:34 29° NE 04:26:24 10° ENE visible
07 Dec 9.5 06:18:47 28° NW 06:24:26 55° NNE 06:34:22 10° ESE visible
